BREEZE-KM DEB, 41722

Orbit data source: Space-Track

BREEZE-KM DEB, 41722 is space debris in LEO originally from a launch on Tue, 31 Mar 2015 UTC launched from the Plesetsk Missile And Space Complex (PKMTR). Debris objects in space refer to the collection of defunct objects orbiting the Earth. Examples of debris include non-operational satellites, rocket bodies, and fragments generated from explosions, collisions, or faulty payload assembly.

Loading next visibility...
Identifier
41722, 2015-020K
Orbit
LEO
Country
Flag of CISCIS
Related business
Manufacturer
Khrunichev
Mission
Spacecraft
Bus & Motor
Unknown
Mass
Unknown
Launch date (UTC)
2015-03-31 (11 years ago)
Launch vehicle
Unknown
Launch site
Plesetsk Missile And Space Complex (PKMTR)
Object type
Payload
Rocket body
Debris
Shape & HBR
Unknown shape, 0.1 m
Radar Cross Section
Medium (>0.1 m² and <1 m²)

Expand to show TLE details & history
Last TLE update: 12 hours ago

TLE from 12 hours ago
0 BREEZE-KM DEB
1 41722U 15020K   26237.27840788  .00000029  00000-0  81745-4 0  9998
2 41722  82.4888 211.5064 0180635  52.9808 308.7662 12.70540280500578
Epoch: 2026-08-25T06:40Z
TLE epoch observation values (Epoch: 2026-08-25T06:40:54.440Z)
Latitude
-0.00003°
Longitude
137.73151°
Altitude
1,296.285 km
Speed
7.248 km/s
True Right ascension
14h 06m 01s
True Declination
0° 00' 00"
Sunlit
Object was in daylight at epoch
Visualization orbit readout
Latitude
Unknown
Longitude
Unknown
Altitude
Unknown
Speed
Unknown
Apparent Right ascension
Unknown
Apparent Declination
Unknown
Sunlit
N/A
Visualization observer readout
Local Sidereal Time
09:45:32
Azimuth
Unknown
Elevation
Unknown
Doppler factor
Unknown
Orbital elements
Apogee altitude
1,517.137 km
Perigee altitude
1,236.965 km
Semi-major axis
7,755.188 km
Eccentricity
0.01806
Inclination
82.4888°
RAAN
211.5064°
Arg. of periapsis
52.9808°
True anomaly
307.12936°
Mean anomaly
308.7662°
Eccentric anomaly
307.95008°
Mean motion
3.17801 °/min
Orbital period
113.28 mins
BSTAR
0.000081745
Loading maneuver chart data...
Computing Atmospheric mass density...
Loading historical data...
Loading historical data...
Loading historical data...
Loading historical data...
Loading historical data...
Loading historical data...
Loading historical data...

Documentation

Showing up to 5 results
|